Regional Weather Roundup
Issued by NWS

Home | Current Version | Previous Version | Graphics & Text | Print | Product List | Glossary On
Versions: 1 2 3 4 5 6 7 8 9 10 11 12 13 14 15 16 17 18 19 20 21 22 23 24 25 26 27 28 29 30 31 32 33 34 35 36 37 38 39 40 41 42 43 44 45 46 47 48 49 50
490
ASUS43 KMPX 112201
RWRMN
WEATHER ROUNDUP FOR MINNESOTA
NATIONAL WEATHER SERVICE TWIN CITIES/CHANHASSEN MN
400 PM CST THU FEB 11 2016


NOTE: "FAIR" INDICATES FEW OR NO CLOUDS BELOW 12,000 FEET WITH NO
SIGNIFICANT WEATHER AND/OR OBSTRUCTIONS TO VISIBILITY. N/A MEANS
CURRENT SKY AND/OR WEATHER CONDITIONS ARE NOT AVAILABLE.

MNZ060>063-068>070-112300-
   Twin Cities Metro

CITY           SKY/WX    TMP DP  RH WIND       PRES   REMARKS
TWIN CITIES    CLOUDY    16  -1  47 SW8       30.24R WCI   5
ST PAUL        CLOUDY    17  -1  45 W10       30.25S WCI   5
CRYSTAL        CLOUDY    17  -1  45 SW8       30.22S WCI   7
BLAINE         CLOUDY    18   0  45 W6        30.22S WCI   9
LAKEVILLE      CLOUDY    14   1  57 W8        30.23R WCI   3
EDEN PRAIRIE   CLOUDY    17   0  47 SW8       30.23S WCI   7
SOUTH ST PAUL  CLOUDY    17   2  50 S6        30.24S WCI   9
LAKE ELMO      CLOUDY    18   3  53 SW5       30.23S WCI  11
$$
MNZ001>005-007-008-013>017-022>024-027-028-112300-
   Northwest Minnesota

CITY           SKY/WX    TMP DP  RH WIND       PRES   REMARKS
BEMIDJI        CLOUDY    12  -3  50 W10       30.15S WCI  -2
HALLOCK        CLOUDY    12   7  79 NW10      30.23R WCI  -1
ROSEAU         CLOUDY    12   5  73 W9        30.18S WCI   0
WARROAD        PTSUNNY   12   3  67 SW7       30.16S WCI   2
THIEF RVR FALL CLOUDY    10   3  72 W6        30.21R WCI   1
CROOKSTON      FLURRIES  12   7  79 W3        30.24R
FOSSTON        CLOUDY    10  -2  56 SW6       30.19S WCI   1
DETROIT LAKES  CLOUDY    16   5  62 NW7       30.18S WCI   6
MOORHEAD       CLOUDY    14   3  62 CALM      30.22S
PARK RAPIDS    CLOUDY    14   0  53 W8        30.15S WCI   3
MAHNOMEN       CLOUDY    11   2  65 CALM      30.19R
$$
MNZ006-009>011-018-025>026-112300-
   North Central Minnesota

CITY           SKY/WX    TMP DP  RH WIND       PRES   REMARKS
BAUDETTE       CLOUDY    12   0  58 W8        30.13S WCI   0
FLAG ISLAND    CLOUDY    12   3  67 NW10      30.14S WCI  -1
INTL FALLS     CLOUDY    12  -6  44 W13       30.12S WCI  -3
WASKISH        CLOUDY    10   3  72 SW8       30.16S WCI  -1
LONGVILLE      CLOUDY    12  -2  52 SW6       30.15S WCI   3
GRAND RAPIDS   CLOUDY    12  -6  44 W7        30.14S WCI   2
CRANE LAKE     CLOUDY    12  -8  40 NW5       30.13F WCI   4
ORR            CLOUDY    12  -8  40 W8        30.08F WCI   1
COOK           CLOUDY    10  -6  48 W13       30.11S WCI  -5
WALKER         CLOUDY    13  -4  47 W7        30.15S WCI   3
$$
MNZ012-019>021-037-112300-
   Northeast Minnesota

CITY           SKY/WX    TMP DP  RH WIND       PRES   REMARKS
DULUTH         PTSUNNY   12  -6  44 W15       30.10F WCI  -4
ELY            CLOUDY     9  -2  61 W9        30.08F WCI  -5
HIBBING        CLOUDY    10  -8  44 W7        30.12S WCI  -1
EVELETH        MOSUNNY   12  -4  48 SW8       30.12S WCI   1
DULUTH HARBOR  CLOUDY    16  -2  45 SW10      30.18F WCI   3
TWO HARBORS    CLOUDY    16  -2  45 W9G16     30.10F WCI   4
SILVER BAY     CLOUDY    16  -6  38 SW5       30.09F WCI   9
GRAND MARAIS     N/A     17   0  47 W9        30.11F WCI   6
G MARAIS ARPRT PTSUNNY    9  -4  56 W8        30.01F WCI  -4
$$
MNZ029>031-032-039>041-046>048-054>057-064-112300-
   West Central Minnesota

CITY           SKY/WX    TMP DP  RH WIND       PRES   REMARKS
FERGUS FALLS   CLOUDY    14   9  79 SW5       30.22S WCI   6
WHEATON        CLOUDY    16  10  79 CALM      30.22R
MORRIS         CLOUDY    16   7  67 S5        30.18R WCI   9
ALEXANDRIA     CLOUDY    13   4  67 SW7       30.17S WCI   3
ELBOW LAKE     LGT SNOW  13   8  79 S3        30.19S
WADENA         FLURRIES  12   5  73 W5        30.17R WCI   4
GLENWOOD       CLOUDY    14   7  73 S6        30.18R WCI   5
APPLETON       MOSUNNY   16  10  79 S6        30.18F WCI   7
BENSON         CLOUDY    16   9  73 CALM      30.18S
ORTONVILLE     LGT SNOW  16  10  79 SE3       30.17S
MADISON        CLOUDY    19  14  79 S8        30.18F WCI   9
WILLMAR        CLOUDY    16   9  73 CALM      30.20S
$$
MNZ033>034-036-042>043-049>051-058-059-112300-
   Central Minnesota

CITY           SKY/WX    TMP DP  RH WIND       PRES   REMARKS
ST CLOUD       LGT SNOW  15   6  67 SW7       30.21S WCI   5
SAUK CENTRE    FLURRIES  14   6  71 SW6       30.19R WCI   5
PAYNESVILLE    CLOUDY    15   6  65 SW6       30.20S WCI   7
AITKIN         CLOUDY    16  -4  41 SW5       30.15S WCI   9
PINE RIVER     CLOUDY    12   0  57 W6        30.19S WCI   3
BRAINERD       CLOUDY    13   0  56 SW6       30.17F WCI   4
STAPLES        CLOUDY    14   3  62 W5        30.17S WCI   6
LONG PRAIRIE   FLURRIES  14   9  79 SW7       30.18S WCI   4
LITTLE FALLS   LGT SNOW  14   7  73 SW3       30.20S
LITCHFIELD     CLOUDY    16   7  67 SW3       30.21S
BUFFALO        FLURRIES  16   5  61 S7        30.23S WCI   6
MAPLE LAKE     LGT SNOW  17   8  67 SW7       30.22S WCI   7
$$
MNZ037-044-045-052-053-112300-
   East Central Minnesota

CITY           SKY/WX    TMP DP  RH WIND       PRES   REMARKS
PRINCETON      CLOUDY    16   1  53 SW7       30.21S WCI   6
MORA           CLOUDY    14   1  57 SW7       30.22S WCI   4
CAMBRIDGE      CLOUDY    16   1  53 CALM      30.20S
RUSH CITY      CLOUDY    15  -2  48 SW6       30.22S WCI   6
MOOSE LAKE     CLOUDY    16  -4  41 W8        30.15F WCI   5
HINCKLEY       CLOUDY    14   0  52 SW8       30.19S WCI   3
CLOQUET        CLOUDY    14  -9  34 W13       30.13S WCI   0
MCGREGOR       CLOUDY    14   0  52 W5        30.16S WCI   6
$$
MNZ071>073-080-081-089-090-097-098-112300-
   Southwest Minnesota

CITY           SKY/WX    TMP DP  RH WIND       PRES   REMARKS
MONTEVIDEO     LGT SNOW  19  12  73 SW9       30.19F WCI   9
GRANITE FALLS  CLOUDY    19  14  80 S7        30.20F WCI  10
CANBY          LGT SNOW  22  17  79 SW3       30.18F
MARSHALL       LGT SNOW  18  12  77 S8        30.18S WCI   8
REDWOOD FALLS  FLURRIES  16   9  74 S8        30.20F WCI   5
OLIVIA         CLOUDY    18   9  68 S8        30.19F WCI   7
PIPESTONE      CLOUDY    18   9  68 S9        30.13S WCI   6
WINDOM         FLURRIES  16  10  79 S9        30.17F WCI   4
WORTHINGTON    CLOUDY    14   7  73 S10       30.16S WCI   1
JACKSON        LGT SNOW  16   9  73 SE8       30.18F WCI   5
TRACY          LGT SNOW  18  13  82 S5        30.18R WCI  11
SLAYTON        LGT SNOW  16  13  90 S7        30.15S WCI   6
$$
MNZ065>067-074>077-082>085-091>093-112300-
   South Central Minnesota

CITY           SKY/WX    TMP DP  RH WIND       PRES   REMARKS
MANKATO        CLOUDY    14   1  57 SW9       30.22F WCI   2
NEW ULM        CLOUDY    14   5  67 SW8       30.22S WCI   3
ST JAMES       CLOUDY    16   9  73 S12       30.23F HAZE    WCI   3
FAIRMONT       CLOUDY    14   3  62 S9        30.21F WCI   2
GLENCOE        CLOUDY    17   7  66 SW7       30.22S WCI   7
FARIBAULT      CLOUDY    16   3  57 SW10      30.22F WCI   3
OWATONNA       CLOUDY    16   3  57 S13       30.21F WCI   2
WASECA         CLOUDY    14   5  67 S9        30.23F WCI   2
ALBERT LEA     CLOUDY    14   1  57 SW5       30.22S WCI   6
$$
MNZ078>079-086>088-094>096-112300-
   Southeast Minnesota

CITY           SKY/WX    TMP DP  RH WIND       PRES   REMARKS
ROCHESTER      CLOUDY    12   2  64 SW12      30.22S WCI  -2
STANTON        CLOUDY    18   4  53 SW7       30.22S WCI   9
DODGE CENTER   CLOUDY    12   1  62 SW9       30.21S WCI   0
WINONA         CLOUDY    19   0  42 SW6       30.27S WCI  11
AUSTIN         SUNNY     12   1  62 SW7       30.23S WCI   2
PRESTON        CLOUDY    13  -1  54 SW7       30.23S WCI   2
$$
ABBREVIATIONS USED IN REMARKS
   TC - TEMPERATURES IN CELSIUS
  WCI - WIND CHILL INDEX
   HX - HEAT INDEX
  VSB - VISIBILITY
$$




USA.gov is the U.S. government's official web portal to all federal, state and local government web resources and services.